This is the latest recevied weather packets stored in our database for station/object N9BLE. If no packets are shown the sender has not sent any weather packets the latest 10 day(s).
| Time | Temp. | Humidity | Pressure | Rain* | Wind** | Luminosity | Snow |
|---|---|---|---|---|---|---|---|
| 1777825991 | 8.33° C | 87% | 1015.9 hPa | 1.78 mm | - | 65 W/m² | - |
| 1777825687 | 8.33° C | 87% | 1015.7 hPa | 0 mm | - | 50 W/m² | - |
| 1777825385 | 8.33° C | 87% | 1015.8 hPa | 0 mm | - | 66 W/m² | - |
| 1777825082 | 8.33° C | 87% | 1015.9 hPa | 0 mm | - | 105 W/m² | - |
| 1777824778 | 8.33° C | 88% | 1016.4 hPa | 1.78 mm | - | 122 W/m² | - |
| 1777824475 | 8.33° C | 89% | 1016.6 hPa | 3.05 mm | - | 134 W/m² | - |
| 1777824171 | 8.89° C | 90% | 1016.8 hPa | 1.27 mm | - | 95 W/m² | - |
| 1777823867 | 8.33° C | 89% | 1017 hPa | 1.78 mm | - | 78 W/m² | - |
| 1777823565 | 8.89° C | 89% | 1016.9 hPa | 1.78 mm | - | 86 W/m² | - |
| 1777823262 | 8.89° C | 88% | 1017 hPa | 0 mm | - | 84 W/m² | - |
| 1777822959 | 8.89° C | 89% | 1016.9 hPa | 0 mm | - | 89 W/m² | - |
| 1777822657 | 8.89° C | 89% | 1017 hPa | 0 mm | - | 110 W/m² | - |
| 1777822355 | 8.89° C | 89% | 1016.9 hPa | 0 mm | - | 96 W/m² | - |
| 1777822052 | 8.89° C | 90% | 1016.8 hPa | 0 mm | - | 108 W/m² | - |
| 1777821750 | 8.33° C | 89% | 1017 hPa | 0 mm | - | 99 W/m² | - |
| 1777821447 | 8.33° C | 87% | 1016.9 hPa | 1.27 mm | - | 58 W/m² | - |
| 1777821144 | 8.33° C | 88% | 1016.8 hPa | 1.27 mm | - | 56 W/m² | - |
| 1777820841 | 8.33° C | 89% | 1017.3 hPa | 1.78 mm | - | 50 W/m² | - |
| 1777820537 | 8.33° C | 87% | 1017.3 hPa | 3.05 mm | - | 46 W/m² | - |
| 1777820234 | 8.33° C | 88% | 1017.5 hPa | 4.32 mm | - | 43 W/m² | - |
| 1777819931 | 8.89° C | 86% | 1017.8 hPa | 4.83 mm | - | 42 W/m² | - |
| 1777819629 | 8.89° C | 82% | 1017.8 hPa | 4.83 mm | - | 61 W/m² | - |
| 1777819327 | 9.44° C | 79% | 1018.1 hPa | 3.05 mm | - | 58 W/m² | - |
| 1777819022 | 10.56° C | 76% | 1018 hPa | 0 mm | - | 43 W/m² | - |
| 1777818720 | 11.11° C | 70% | 1017.8 hPa | 0 mm | - | 39 W/m² | - |
* Rain latest hour (hover to see other rain measurements)
** Current wind speed in m/s (hover to see current wind gust speed)